Theta_e
300 301 301 301 300 300 298 298 297 297 296 295 296 295 295 294 294 293 294 294 293 292 292 291 290 290 289 290 289 290 290 290 290 290 290 289 290 290 290 289 289 289 288 287 287 287 286 285 285 286 285 285 284 284 285 284 285 284 284 284 284 283 283 284 284 284 283 282 283 282 283 284 286 287 286 287 287 288 288 289 290 291 290 289 290
301 299 300 300 299 298 297 297 296 295 295 295 295 295 295 294 294 293 294 293 293 293 292 291 291 290 290 290 290 290 290 290 289 289 289 291 290 289 289 289 289 288 288 287 287 286 285 285 285 285 285 284 284 285 285 287 284 283 284 283 284 283 282 284 284 284 281 280 279 280 281 283 284 285 285 286 287 286 285 285 285 285 286 287 288
298 298 299 299 298 298 296 296 296 295 294 294 295 294 294 294 294 293 293 293 293 293 292 291 291 291 291 290 290 289 290 290 289 289 290 289 289 289 289 289 288 288 287 287 287 286 285 284 284 284 285 285 284 283 283 283 283 283 283 282 282 282 283 284 284 284 279 280 281 279 277 277 282 283 285 283 284 285 285 284 285 285 286 287 288
297 297 297 297 297 296 295 295 295 295 294 294 294 294 294 294 293 293 293 293 292 293 293 292 292 291 291 291 291 290 289 290 290 289 289 289 288 289 288 288 288 287 287 287 287 286 285 284 284 284 284 284 284 283 283 282 283 283 283 283 283 280 281 281 284 283 282 280 276 277 277 277 275 279 279 281 283 283 283 284 285 286 285 285 286
297 297 296 296 295 295 295 295 295 294 294 293 294 294 294 294 293 293 293 293 292 293 292 292 292 291 291 291 290 289 289 287 287 286 287 288 288 287 288 288 288 287 287 287 286 285 285 285 283 283 283 284 283 282 282 282 282 283 283 282 281 280 280 280 281 283 282 283 280 276 275 275 275 277 278 279 281 281 282 283 283 284 284 285 286
298 297 297 296 296 295 294 294 294 294 294 294 294 294 294 294 294 293 293 293 292 292 292 292 291 291 289 288 286 286 286 285 285 286 286 286 286 287 288 288 287 287 286 286 286 285 284 284 283 283 283 283 284 283 282 282 282 282 282 282 281 281 281 280 279 282 283 283 283 280 279 274 275 277 276 274 280 282 281 282 282 283 283 284 284
299 298 297 295 295 294 294 294 294 294 294 294 293 293 294 294 294 294 293 292 293 292 292 292 291 290 289 289 288 287 286 286 287 287 287 287 287 287 287 287 287 287 286 285 285 285 284 284 283 283 283 282 283 282 281 281 282 282 283 282 282 283 281 279 279 279 280 281 283 283 282 282 281 278 275 277 275 278 280 280 281 282 283 283 284
299 298 297 296 295 295 294 294 294 294 294 294 293 293 293 293 293 293 293 293 292 292 292 292 290 290 289 288 288 287 286 286 287 287 288 288 287 287 286 286 286 286 285 285 285 284 284 283 283 283 282 282 283 282 281 281 283 283 283 282 282 281 280 279 278 279 277 278 281 280 280 281 281 280 280 277 276 275 277 280 281 281 282 282 283
300 298 297 296 295 295 295 294 295 294 294 294 293 293 293 293 293 293 293 292 292 292 291 291 291 290 289 288 287 287 287 287 287 288 287 287 286 286 285 285 285 285 285 285 284 284 284 283 282 282 282 282 282 283 281 281 281 281 280 281 280 281 281 281 279 278 279 277 278 277 278 278 279 279 279 278 276 275 275 277 278 280 281 282 282
300 299 298 297 296 296 296 295 294 294 295 295 293 293 293 293 292 292 292 292 292 291 291 291 290 290 289 288 287 287 287 287 287 286 285 285 285 284 284 284 284 284 284 284 283 283 283 283 282 281 281 281 282 281 281 281 281 280 280 280 281 280 280 280 280 279 279 279 279 278 277 276 277 277 276 276 277 277 275 276 277 277 276 278 281
299 299 298 297 296 296 295 294 294 294 294 294 293 293 292 292 292 292 292 292 292 291 291 290 290 290 289 288 287 287 287 287 286 285 285 284 284 284 284 283 283 283 283 283 283 283 282 282 281 281 281 282 281 281 280 280 280 280 281 281 280 280 279 279 280 280 280 279 278 278 277 277 276 275 275 276 276 275 275 275 276 277 277 276 279
299 298 297 296 295 294 294 293 293 293 293 293 293 292 292 292 292 291 291 292 292 292 291 290 290 289 289 288 288 288 288 287 286 285 285 284 284 284 283 283 282 283 282 282 282 282 282 281 281 281 281 280 280 280 280 280 280 280 279 279 279 279 279 279 278 278 278 278 278 278 278 278 278 277 277 277 276 276 276 275 275 276 277 277 279
299 297 297 296 295 294 293 293 292 292 292 293 293 292 292 292 291 291 291 291 291 291 291 290 290 289 289 288 288 288 288 287 286 285 285 284 284 283 283 282 282 281 281 281 281 281 281 280 280 280 280 280 280 280 280 279 279 279 278 278 278 278 278 278 277 277 277 277 276 277 277 277 277 278 278 277 277 277 276 274 276 277 274 275 277
298 297 297 296 295 294 294 293 293 292 292 292 292 292 292 292 291 291 291 291 291 291 290 290 289 289 289 289 289 288 287 287 286 285 285 285 284 283 283 282 281 281 281 280 281 281 281 281 281 280 280 279 279 279 279 279 279 278 278 278 277 278 277 277 277 277 277 277 277 277 277 277 277 278 277 277 276 276 275 274 274 275 275 274 276
297 297 297 296 296 294 294 294 293 292 292 292 292 292 292 291 291 291 290 291 291 291 290 290 289 289 289 289 288 288 288 287 286 286 285 284 284 283 282 281 281 281 281 281 281 281 280 280 279 279 279 279 279 278 280 278 278 278 278 277 277 277 277 277 277 276 277 276 276 276 277 277 277 277 277 277 277 276 276 275 274 272 273 274 274
297 297 296 296 296 295 294 294 293 293 292 292 292 292 291 291 291 291 291 291 291 290 290 290 289 289 288 288 288 288 287 287 286 285 284 284 283 282 281 281 280 280 280 280 280 280 279 278 278 278 278 278 278 277 277 277 276 276 276 276 276 278 277 276 276 276 276 276 276 276 276 276 277 277 277 277 277 277 277 276 276 274 272 270 273
296 297 296 296 295 295 295 294 293 293 292 292 292 292 292 291 291 290 290 290 290 290 290 290 289 288 288 288 287 287 286 286 285 284 283 283 282 281 280 280 280 279 280 280 279 278 278 278 277 277 277 277 277 277 276 276 276 276 276 275 275 276 276 275 276 275 276 276 275 275 275 276 276 276 276 277 277 277 277 277 276 275 274 272 270
296 296 296 296 296 295 295 294 294 293 293 292 292 292 292 292 291 290 290 290 290 290 290 289 289 288 287 287 287 287 286 285 284 283 282 281 280 280 280 279 278 279 279 279 278 278 277 279 277 276 276 276 276 276 276 276 275 276 275 275 275 275 275 275 275 275 275 275 275 275 275 275 276 275 276 276 276 276 276 276 276 276 276 273 272
296 296 296 296 296 295 295 295 294 294 293 292 292 292 291 291 291 291 290 290 290 290 289 289 289 288 288 287 286 286 285 284 283 282 281 280 279 279 278 278 278 278 278 278 277 277 277 277 276 276 276 276 276 276 276 275 275 275 275 275 275 274 274 274 274 274 275 274 274 274 274 274 275 274 275 275 275 275 275 275 275 275 275 275 273
296 296 296 297 296 295 295 294 293 293 293 292 291 291 290 291 290 290 290 290 289 289 289 288 288 288 287 286 286 285 284 283 282 281 280 279 279 278 278 277 277 278 277 277 277 276 276 276 276 276 275 275 275 274 274 274 274 274 274 274 274 274 273 273 273 274 274 274 273 273 273 273 274 274 273 274 274 274 274 274 274 274 274 274 274
297 297 296 296 296 294 293 293 292 290 290 291 290 290 290 290 290 290 289 289 289 289 288 288 288 287 286 285 285 283 282 282 280 280 279 279 278 278 278 277 277 277 277 277 276 276 276 276 275 275 275 274 274 274 274 274 273 273 273 273 273 273 272 272 273 272 273 273 272 272 272 273 273 273 273 273 273 273 273 273 274 274 273 273 273
298 298 297 296 295 295 293 289 288 289 289 289 290 289 288 289 289 289 289 288 288 288 288 287 287 287 285 285 284 282 281 280 279 279 278 278 278 277 277 277 277 277 277 276 276 276 275 275 274 274 274 273 274 273 273 273 273 272 272 273 272 272 272 272 272 271 272 272 272 271 272 272 273 272 272 272 272 272 272 272 273 273 272 272 273
298 298 298 296 296 296 294 292 291 290 290 289 288 289 289 288 288 288 288 288 288 288 288 287 286 285 285 284 282 281 280 279 279 278 277 277 277 277 277 276 276 276 276 276 275 275 275 274 274 274 273 273 273 272 272 272 272 272 272 272 272 271 271 271 271 271 271 271 271 271 271 272 272 271 272 272 272 272 273 272 272 272 271 272 272
296 296 296 297 294 292 291 289 290 289 288 288 289 289 288 288 288 288 287 287 287 287 287 286 285 284 283 282 281 280 279 278 278 277 277 276 276 276 277 276 276 275 275 275 275 274 274 273 273 272 272 272 272 272 272 272 272 271 271 271 271 271 271 271 271 271 271 271 271 270 271 271 271 271 271 271 271 272 272 272 272 272 272 271 272
294 295 295 295 292 290 291 291 290 289 289 288 288 288 287 287 287 287 288 287 287 286 286 285 284 283 282 281 280 279 278 278 277 277 276 276 276 276 276 275 275 274 274 274 274 273 273 272 272 272 271 271 271 271 271 271 271 271 271 271 271 271 271 271 271 271 272 271 271 270 271 271 271 270 270 271 272 272 272 272 271 272 272 272 272
295 295 293 292 292 291 289 288 288 287 288 288 287 287 287 287 287 287 287 286 286 285 285 284 283 282 281 280 279 278 278 277 276 276 276 276 276 275 275 275 274 274 274 273 273 272 272 272 271 271 271 271 271 271 271 271 271 271 271 271 271 271 271 271 271 271 271 271 271 271 271 271 271 271 271 272 272 272 273 272 272 272 272 273 272
294 294 295 293 289 288 288 288 288 288 287 287 286 286 286 286 286 286 286 286 285 285 284 283 282 282 280 280 279 278 277 277 276 276 276 275 275 275 274 274 274 274 273 272 272 271 272 271 271 271 270 270 270 270 270 270 270 270 270 270 270 270 271 271 271 271 271 271 272 272 272 273 272 272 272 272 272 272 272 272 273 272 272 272 272
292 292 291 291 291 290 288 287 287 287 287 285 285 286 286 286 286 286 285 285 285 284 283 282 281 281 280 279 278 277 277 276 276 275 275 275 274 274 274 274 274 273 272 272 271 271 270 270 270 270 271 270 270 270 270 270 270 270 270 270 270 270 270 270 271 272 272 273 273 274 274 274 274 273 273 273 273 273 273 272 273 273 273 272 271
291 292 292 291 290 290 289 288 288 287 286 285 285 284 284 284 284 285 285 285 284 283 282 281 281 280 279 279 277 277 276 276 275 275 275 274 274 274 274 274 273 272 272 271 271 271 270 270 270 270 270 270 270 270 270 270 270 270 270 270 270 270 271 272 273 273 274 274 274 274 275 275 275 277 278 278 278 278 276 275 274 273 272 272 271
291 293 292 291 291 291 290 289 288 287 286 285 284 283 284 284 284 284 284 284 283 282 282 281 280 280 279 277 276 276 275 275 275 274 274 274 273 273 273 272 272 271 271 270 270 270 270 270 269 270 270 271 271 271 272 275 275 272 271 271 272 273 273 273 273 273 274 274 275 275 275 277 278 278 278 279 279 279 279 278 276 276 275 274 273
291 291 291 291 292 291 291 290 289 288 287 286 285 284 284 283 283 283 283 282 282 282 281 280 280 279 278 276 276 275 275 274 274 274 273 273 273 272 271 271 270 270 270 270 270 269 269 270 270 270 270 271 271 271 274 276 276 277 275 274 274 274 274 274 274 274 274 274 275 275 275 276 276 277 276 278 279 279 279 279 280 280 279 276 274
292 291 290 290 290 290 290 290 291 290 289 287 285 284 283 283 283 283 282 281 281 281 280 279 279 278 276 276 275 274 274 274 273 273 273 272 272 271 270 270 269 269 269 269 269 269 269 270 270 270 270 270 271 273 275 276 276 277 277 275 275 274 274 274 274 274 274 274 274 274 274 274 275 275 275 275 276 278 279 279 279 279 279 280 280
292 289 290 290 291 290 291 291 291 291 290 288 286 284 283 283 283 283 281 280 280 279 279 278 277 276 276 275 274 274 273 273 273 272 272 271 270 270 269 269 268 269 269 268 269 269 269 270 270 270 270 270 270 273 274 275 276 277 277 277 275 275 275 275 274 274 274 273 273 273 273 274 274 276 276 275 275 275 277 278 279 279 279 279 280
291 290 290 290 290 291 291 291 291 292 291 289 286 285 285 284 283 281 279 279 279 278 278 277 276 276 275 274 273 273 273 272 271 271 270 269 269 269 268 268 268 268 268 268 269 269 269 269 270 269 269 269 270 271 274 275 275 276 277 277 275 275 275 274 273 273 273 273 273 273 273 273 274 274 275 275 275 275 275 275 275 275 275 277 279
290 290 290 290 291 290 291 289 289 290 288 286 284 284 282 281 280 279 279 278 278 277 277 276 275 275 274 274 273 273 272 271 270 269 269 268 268 268 268 268 268 268 268 268 268 268 269 269 269 269 268 268 268 271 273 275 275 276 277 277 275 274 273 273 273 273 273 273 273 273 273 273 274 274 275 276 275 275 275 275 275 275 275 275 276
293 291 292 291 291 291 291 291 289 288 286 285 285 283 282 281 279 279 278 278 277 277 276 275 275 274 274 273 273 272 271 270 269 268 268 267 267 267 267 268 268 268 268 268 268 269 268 268 268 268 267 267 267 271 273 274 275 276 277 275 273 273 272 272 273 273 273 273 274 274 273 273 274 274 276 279 278 276 275 274 274 274 275 275 276
294 292 293 293 292 291 291 289 286 286 285 284 283 282 281 278 278 277 277 277 277 276 276 275 274 274 273 273 273 271 270 269 268 268 267 267 267 267 267 268 267 268 268 267 267 268 268 267 267 267 266 266 267 269 271 273 274 276 275 273 273 272 272 272 272 273 273 273 274 274 274 274 274 274 276 278 279 278 275 274 273 273 274 274 274
295 294 293 293 292 290 289 288 286 285 285 284 282 281 280 278 277 276 276 276 276 276 275 275 274 273 273 272 272 271 269 268 267 267 267 267 267 267 267 268 267 267 267 267 267 267 267 267 266 266 266 266 266 268 271 273 274 275 275 273 272 272 271 272 272 273 273 273 274 276 276 274 273 273 277 278 279 277 274 273 273 273 273 273 274
294 294 293 292 291 290 287 285 284 284 282 281 281 280 279 278 277 276 276 275 275 275 275 274 274 273 272 272 271 270 269 268 267 267 267 267 267 267 267 267 267 267 267 267 266 266 266 266 266 266 268 267 267 268 271 272 274 275 274 273 272 271 271 271 271 272 273 274 274 275 276 275 274 275 278 278 278 277 274 274 274 273 273 272 273
292 291 291 290 287 286 284 284 284 283 280 280 279 279 278 277 276 275 275 275 275 276 275 274 273 272 272 272 271 269 268 268 267 267 267 267 267 266 266 266 266 266 265 266 265 265 265 265 266 266 266 267 267 267 268 272 274 274 275 273 272 271 270 271 272 272 272 273 273 272 273 275 276 277 277 278 278 279 276 275 274 273 272 271 273
291 291 291 288 286 287 287 285 283 280 279 279 279 278 277 276 275 275 275 276 276 275 274 274 272 271 270 270 269 269 268 267 267 267 267 266 266 266 265 265 264 265 265 265 265 264 264 264 265 266 267 267 268 267 268 272 273 274 275 274 272 272 272 272 272 272 272 271 271 271 272 274 276 276 277 279 279 279 278 274 274 272 272 273 276
290 289 288 286 285 285 284 282 281 281 280 279 279 278 277 276 275 275 276 276 275 274 273 272 271 270 269 268 268 268 268 267 266 266 265 265 265 265 265 264 264 264 264 264 264 263 263 264 266 267 267 267 269 270 268 271 272 273 274 275 273 273 274 273 272 271 271 271 271 270 270 272 275 277 278 278 278 278 277 273 272 276 277 278 274
289 287 285 285 284 285 285 285 281 280 280 279 279 278 277 276 275 277 277 276 274 273 272 270 269 268 267 267 267 266 265 265 265 265 265 264 264 263 263 263 264 263 263 262 262 263 264 264 266 266 268 268 268 268 270 269 272 273 274 275 275 275 276 274 272 270 270 270 270 270 271 274 276 277 276 277 277 276 274 271 276 277 277 277 275
289 287 287 285 286 285 285 281 279 279 279 280 280 279 278 276 277 277 275 273 272 272 270 269 268 267 266 265 265 264 264 264 264 264 264 263 262 262 262 262 263 262 262 262 263 264 264 264 265 266 267 267 268 267 269 270 270 273 274 275 275 276 276 273 273 271 270 270 269 270 272 276 275 275 275 275 275 274 271 274 275 276 275 274 270
290 289 285 283 286 286 282 278 277 277 278 279 280 281 279 278 278 274 274 272 271 269 268 267 266 265 264 264 263 263 263 263 264 264 263 262 261 261 261 262 262 263 263 263 264 265 264 264 265 265 265 266 265 266 266 269 271 272 273 274 274 275 275 275 271 271 270 270 273 275 275 274 273 274 274 273 271 271 273 274 274 274 273 268 268
286 285 283 284 283 283 281 281 277 276 277 278 279 281 279 280 275 273 272 271 269 268 266 265 264 263 263 262 262 262 262 263 263 264 263 263 261 262 262 262 262 263 264 264 264 264 264 264 264 264 264 264 264 265 266 268 269 270 272 273 274 274 273 274 273 270 272 274 274 273 272 272 271 270 268 267 267 267 272 272 272 271 268 267 267
288 287 284 280 281 283 283 282 280 276 276 277 277 279 280 275 272 272 271 269 268 267 265 264 263 262 262 262 262 261 261 262 262 263 263 263 262 263 263 262 262 263 263 263 264 264 264 264 263 264 264 264 262 264 266 267 268 269 271 271 271 271 272 272 270 269 271 269 268 267 267 270 270 271 270 270 269 269 267 267 267 267 267 267 268
288 287 283 280 280 281 282 281 282 280 275 275 276 277 276 273 271 270 269 267 267 266 264 263 262 262 261 262 261 261 261 261 262 262 262 262 263 264 263 263 263 263 263 263 263 264 264 264 263 264 264 264 263 263 265 266 267 270 271 271 271 271 270 269 268 269 269 266 264 266 266 264 264 264 264 264 264 265 265 265 265 266 266 267 269
289 285 281 282 281 280 281 281 281 280 275 274 274 275 272 270 270 268 268 267 266 265 264 262 262 261 261 262 261 261 261 261 261 262 263 263 263 264 263 264 265 265 265 264 264 264 265 265 264 264 263 263 264 264 265 270 271 272 271 270 270 270 270 269 270 272 267 263 262 261 261 262 261 262 262 262 262 263 263 264 264 265 266 266 266
288 287 282 281 280 281 280 280 281 278 274 274 273 273 271 270 268 268 267 267 265 264 263 262 261 261 261 261 261 261 261 261 261 262 262 262 265 267 266 264 265 268 270 270 269 265 266 265 265 266 266 264 264 266 270 272 272 272 272 273 272 272 272 271 272 271 267 260 259 259 260 260 260 260 260 261 261 262 262 263 264 266 265 265 266
289 289 287 283 281 280 280 280 280 277 274 274 273 272 269 269 268 268 268 267 265 263 262 262 261 261 261 261 261 261 261 261 262 262 262 262 263 266 269 269 269 270 271 271 271 271 271 270 267 265 268 270 270 271 271 271 271 271 272 272 272 271 271 271 271 266 260 258 258 258 259 259 260 260 260 261 261 262 262 262 263 264 264 265 265
Wind_Speed
7 11 13 13 12 11 9 10 10 11 11 12 13 13 14 15 13 14 12 12 11 11 10 10 10 8 5 8 9 7 8 6 6 6 7 6 6 7 6 5 5 5 5 5 4 4 3 2 3 2 2 3 3 2 0 2 2 2 3 3 4 7 5 4 5 5 7 7 5 8 9 8 11 11 10 7 7 6 5 6 5 5 6 8 8
7 7 9 9 9 9 9 10 10 14 11 13 15 15 14 14 15 13 11 12 11 11 11 10 9 11 11 10 8 8 8 9 7 6 6 5 7 6 6 5 5 5 5 5 4 4 4 3 2 2 2 2 1 0 1 1 2 3 2 3 2 4 6 5 8 6 3 7 12 13 10 7 7 9 6 1 3 7 9 10 8 8 7 7 6
7 9 10 11 10 11 11 10 11 14 14 15 14 14 13 14 13 12 12 12 11 11 10 11 8 7 7 7 8 6 4 4 5 5 5 6 7 6 6 6 6 5 6 5 5 4 4 3 2 2 1 1 0 1 1 2 1 2 2 3 5 3 4 5 6 3 4 5 7 7 7 11 4 6 1 8 14 11 8 6 7 6 7 5 5
10 11 11 10 11 11 10 11 11 11 12 11 12 15 12 12 12 13 13 12 11 11 11 9 9 7 6 7 7 7 7 6 5 6 6 7 7 6 6 6 6 6 6 5 5 4 4 4 3 2 1 1 1 0 1 2 2 3 3 3 2 5 3 3 3 4 2 5 6 2 8 5 9 0 8 10 13 11 4 5 3 5 8 8 8
11 9 9 10 12 14 14 12 11 13 13 14 14 14 11 14 14 14 13 13 11 11 12 10 10 8 7 7 6 7 6 6 6 6 6 6 6 7 7 6 7 7 6 6 6 5 4 4 3 2 2 1 1 1 2 3 3 3 2 2 3 4 6 3 3 3 4 2 2 4 5 2 2 11 15 11 3 2 6 9 7 8 5 5 5
14 14 14 14 14 10 10 11 12 12 13 13 13 13 12 12 13 13 12 12 12 13 14 12 12 12 11 11 10 7 8 9 11 12 10 10 9 7 7 7 7 6 6 6 5 4 4 4 3 3 2 2 3 4 3 3 3 3 3 3 4 4 4 6 5 3 4 4 4 6 5 6 10 7 3 9 5 9 11 6 4 4 4 5 6
8 10 10 11 11 12 12 13 14 14 13 11 11 12 13 13 14 14 13 12 12 12 13 11 11 11 14 14 13 14 13 8 6 6 8 7 7 9 8 7 7 7 6 6 5 5 4 4 4 4 3 3 3 3 3 3 3 3 3 3 3 3 3 6 6 5 4 4 5 6 7 7 6 6 6 9 19 5 6 3 3 4 5 6 7
13 13 14 14 15 17 18 17 15 16 12 11 11 12 15 15 14 15 12 12 11 11 14 13 13 12 12 11 10 10 11 10 10 9 8 8 9 8 7 7 7 7 7 5 6 5 5 4 4 4 4 3 3 3 3 3 3 3 2 3 3 4 4 6 6 5 4 3 2 4 4 4 5 6 6 7 9 15 24 4 7 7 5 4 6
13 12 14 15 16 16 14 15 14 11 12 14 14 14 13 12 13 13 13 12 12 13 14 13 12 12 12 11 10 7 8 7 7 7 8 9 9 7 8 7 7 7 7 6 6 6 5 5 4 4 4 4 3 3 3 3 4 4 3 3 3 4 4 4 5 6 4 6 3 4 4 5 5 4 5 4 5 10 18 18 19 7 6 7 10
10 12 13 14 14 13 13 11 11 13 12 11 11 11 12 12 13 15 14 12 12 14 14 14 13 11 12 12 12 9 8 7 8 9 8 8 9 8 7 7 7 7 7 6 6 6 5 5 4 4 4 3 3 3 3 3 3 3 3 3 4 5 4 5 6 6 6 5 4 4 4 4 4 4 4 5 7 7 12 20 18 21 24 7 0
9 9 9 10 10 10 10 13 13 11 10 11 12 12 12 13 13 15 15 12 13 14 15 15 13 12 12 12 13 12 11 10 10 9 8 8 8 8 8 7 7 7 7 6 6 6 5 5 5 4 4 3 3 4 4 4 4 4 5 4 5 5 5 5 6 6 5 5 5 5 6 6 6 6 6 5 5 6 9 15 16 16 17 24 13
9 9 8 9 8 9 10 11 12 13 11 12 12 12 13 13 13 15 14 15 13 14 15 15 14 13 12 12 13 12 13 11 13 13 12 12 10 9 7 7 6 6 7 7 7 6 6 5 5 4 4 4 4 4 4 4 5 3 2 3 3 4 4 5 5 6 6 6 5 5 6 5 6 7 6 6 6 8 8 13 15 15 18 16 13
10 9 8 9 12 13 14 12 12 13 15 16 15 13 13 13 15 16 17 16 15 14 16 15 14 14 13 13 13 12 12 12 12 11 10 11 10 9 9 8 7 7 7 8 7 8 7 6 6 6 5 5 5 5 4 3 1 2 3 4 4 5 5 5 6 6 6 6 6 5 5 5 6 5 6 6 6 7 7 12 14 10 15 19 20
10 10 10 11 12 12 13 14 15 14 14 15 14 14 13 13 15 17 17 16 14 14 15 16 16 14 13 13 13 12 12 12 10 11 10 9 9 10 10 9 9 8 8 7 7 7 6 6 5 5 4 4 3 2 2 2 2 3 3 4 4 5 4 5 7 6 6 6 5 6 6 7 7 6 7 6 8 7 9 10 12 12 12 17 16
8 9 11 12 12 13 14 14 13 13 14 14 13 14 13 14 16 18 16 16 17 17 15 17 15 15 13 12 12 11 11 11 9 9 10 10 9 9 8 7 8 7 8 7 7 7 6 5 5 4 4 4 3 3 3 3 3 3 3 4 4 4 5 6 7 6 7 7 6 6 7 7 7 7 7 7 7 8 9 9 9 14 16 15 16
7 8 9 10 11 11 11 12 12 12 14 13 14 14 15 16 17 18 19 18 18 16 16 17 16 13 13 14 13 12 10 9 8 7 8 9 9 10 9 8 7 7 7 7 6 6 6 5 4 4 4 4 4 4 3 3 3 3 3 3 5 3 5 6 7 6 7 7 7 7 7 8 7 8 7 8 8 8 8 8 9 10 13 19 16
7 9 11 10 7 8 11 11 11 11 12 16 18 18 20 17 16 17 16 14 17 17 17 15 14 14 15 14 12 12 13 13 11 11 10 9 9 8 9 8 7 7 7 6 7 5 6 5 5 5 4 4 4 3 3 3 3 3 4 4 6 4 5 6 7 7 6 6 5 7 7 8 8 7 7 7 8 7 8 8 8 10 10 13 15
8 8 7 8 11 13 12 11 13 15 17 16 17 15 15 15 16 17 16 18 18 17 17 16 16 16 15 15 14 14 13 12 11 12 10 10 8 8 8 8 8 7 7 6 6 6 5 5 5 4 4 3 3 3 3 3 3 4 4 5 5 4 6 6 6 6 6 5 6 7 7 8 8 7 7 7 7 8 8 8 9 9 9 13 13
8 8 9 10 11 12 13 15 14 14 13 13 13 12 11 12 14 15 19 20 18 15 14 12 14 12 13 15 15 13 11 11 10 11 10 11 11 10 9 9 8 8 8 7 7 6 5 5 5 4 4 4 4 4 3 3 3 4 4 5 4 4 5 7 6 5 6 5 6 8 8 9 8 8 7 7 8 8 9 9 10 10 11 12 13
7 8 10 12 12 13 15 14 14 15 15 13 13 11 13 14 13 13 12 10 11 14 15 15 15 13 12 11 12 12 12 12 11 12 12 12 11 11 10 9 9 8 7 7 7 6 6 6 5 5 4 4 4 3 3 3 3 4 4 5 5 5 6 7 6 5 5 6 7 9 9 9 8 7 8 8 8 9 9 10 11 11 11 10 10
9 10 11 11 12 11 10 10 10 7 6 7 10 14 14 11 12 13 15 16 16 16 14 15 13 14 14 16 15 13 13 11 11 11 11 11 10 10 9 8 8 8 8 8 7 7 6 6 5 4 4 4 3 3 3 3 3 4 5 5 5 5 7 7 6 7 6 7 8 9 10 10 8 9 9 8 9 10 11 11 10 9 10 9 10
10 10 10 11 10 11 9 6 5 6 7 10 11 10 10 14 15 14 12 13 15 14 15 15 14 14 15 15 14 12 12 11 12 12 11 11 10 10 10 9 9 8 8 7 7 6 5 5 4 4 4 3 3 3 3 3 4 5 6 5 6 6 7 8 6 8 7 7 8 9 10 10 8 10 10 10 9 11 11 11 12 11 11 11 11
10 10 10 10 11 13 13 13 11 13 13 11 10 12 14 14 12 12 14 15 15 15 13 12 13 13 14 13 12 12 12 13 13 11 11 11 10 10 9 10 9 8 7 7 6 6 5 5 4 4 4 4 4 3 3 3 5 6 7 6 6 6 7 8 8 9 8 8 9 10 11 9 8 9 10 10 10 11 10 11 10 8 11 12 13
8 8 9 10 8 7 6 8 12 11 11 13 14 13 12 11 13 12 14 16 14 12 13 13 12 12 11 12 13 12 13 13 13 11 12 11 10 10 9 10 9 7 8 6 6 6 6 5 5 4 4 4 4 4 4 5 6 7 7 7 7 8 8 8 9 9 9 8 9 10 10 9 9 11 11 11 11 12 11 11 13 12 13 15 14
8 9 9 9 7 8 10 12 12 13 11 11 11 12 11 12 10 13 15 13 12 9 10 11 11 13 13 14 13 13 14 14 13 11 13 12 11 11 9 10 10 9 8 8 7 6 6 5 6 5 5 4 4 4 5 6 6 6 7 7 8 8 8 9 9 9 9 9 10 11 11 9 10 12 12 11 10 12 13 13 14 13 13 14 12
11 11 9 9 10 9 7 8 8 8 10 11 13 13 12 11 13 13 10 9 11 9 10 10 11 14 14 15 14 14 15 15 14 13 13 12 12 11 11 10 11 11 9 8 8 6 6 6 5 5 4 4 4 4 4 5 6 6 7 7 8 8 9 9 9 9 10 9 10 11 10 10 11 12 12 12 13 16 14 16 16 17 17 17 17
12 12 12 9 6 7 10 10 11 11 11 11 11 11 11 11 11 10 10 11 11 11 11 12 12 13 13 15 15 15 14 14 14 13 12 12 12 12 12 12 11 10 10 9 8 7 6 6 5 4 4 4 4 4 5 6 7 7 8 8 8 8 9 8 8 9 9 9 10 11 11 12 14 13 17 17 15 15 14 17 19 17 18 16 19
7 8 8 10 11 9 10 11 11 11 10 9 10 11 12 13 13 11 11 11 10 13 13 13 13 13 14 15 14 13 13 13 12 12 13 12 12 11 10 9 10 10 9 9 8 7 5 4 4 4 4 3 4 4 5 7 7 7 7 7 7 7 7 8 9 10 10 11 12 13 14 14 15 15 15 17 16 16 16 19 16 16 14 18 16
8 10 11 11 10 10 12 12 13 12 11 12 11 9 8 7 7 10 11 13 12 13 13 13 13 14 15 14 12 12 11 12 13 13 13 13 12 11 10 10 9 8 6 7 6 6 6 5 4 5 4 4 5 6 6 7 7 7 6 6 6 7 9 10 11 12 12 13 13 13 14 14 16 20 25 22 22 21 15 11 11 11 15 16 17
10 12 13 11 12 12 12 12 12 11 12 11 10 10 11 12 12 12 12 10 12 13 14 15 16 15 13 13 13 12 13 13 13 13 12 12 11 11 10 10 9 8 7 7 6 5 6 5 5 5 5 6 6 6 9 16 13 7 6 6 7 8 10 11 11 12 12 12 13 13 13 21 23 24 26 27 28 28 28 23 19 16 15 13 14
11 13 12 12 13 13 12 11 12 12 14 14 13 13 11 10 10 11 13 12 13 14 14 15 15 13 13 13 13 13 12 13 12 11 10 12 12 10 10 10 9 9 9 8 7 6 5 6 7 6 7 6 6 6 13 14 14 15 9 7 9 10 10 11 11 12 12 13 12 12 12 16 19 20 19 26 26 28 29 30 32 31 27 22 17
12 11 11 11 12 12 12 13 13 14 14 12 11 11 11 13 12 13 12 12 13 13 14 13 12 12 13 14 13 13 13 13 12 12 12 11 11 11 11 10 10 9 8 7 6 7 7 6 6 7 7 6 5 9 14 14 14 14 13 9 9 9 9 10 11 11 11 11 13 13 12 12 12 13 15 16 21 27 30 31 33 32 32 33 32
11 8 12 12 12 12 12 13 13 14 13 13 14 12 14 13 13 13 11 12 13 13 13 13 12 12 13 12 11 12 11 11 11 11 11 11 11 11 11 12 12 7 6 7 8 7 7 7 6 6 6 5 6 10 13 14 13 13 13 12 9 9 9 10 10 11 12 12 13 14 14 12 11 22 19 16 16 18 25 32 33 34 34 35 33
9 8 9 10 9 9 11 12 13 14 14 13 13 16 15 13 12 11 13 13 13 11 11 11 11 12 12 12 12 12 12 11 10 10 10 11 11 11 8 6 7 8 7 7 7 7 6 7 6 5 5 6 7 9 13 12 12 13 12 12 8 9 9 10 11 11 11 12 14 14 13 14 16 17 15 15 16 18 18 17 17 16 15 21 29
7 8 9 9 10 10 11 9 9 11 9 7 9 9 7 10 11 13 12 13 12 12 12 13 14 13 13 13 14 13 13 12 12 12 12 12 12 10 9 8 8 8 9 8 8 7 6 5 4 4 3 5 6 11 12 12 11 11 12 11 7 8 9 10 10 11 12 13 13 13 15 18 17 14 13 18 19 17 17 15 15 16 17 16 15
10 9 10 9 10 11 11 11 8 7 8 10 12 10 12 12 11 14 12 13 13 13 14 13 14 14 15 15 15 15 14 13 13 13 12 10 9 9 11 9 8 7 6 6 5 6 6 5 5 4 4 6 7 12 11 11 10 10 12 7 6 8 8 10 10 11 12 12 12 13 16 17 15 16 22 30 27 21 19 20 19 18 17 16 17
11 8 10 11 9 8 10 7 5 8 9 10 9 11 12 12 12 12 13 12 13 14 15 16 15 15 16 16 16 16 15 15 15 13 10 10 11 10 8 7 8 8 8 7 6 5 5 5 5 5 6 7 6 9 10 9 9 10 9 5 6 6 8 10 11 12 12 11 12 14 15 15 18 19 25 30 31 29 19 18 19 18 18 18 19
12 9 8 9 8 6 5 6 6 7 9 8 10 12 13 12 13 12 13 13 14 16 15 15 16 16 16 16 16 16 17 16 15 15 11 10 8 7 8 7 8 9 8 7 6 5 4 4 5 6 7 6 6 8 10 8 8 9 9 5 5 6 7 9 11 11 10 12 15 23 20 18 19 18 26 32 32 26 19 20 19 21 22 20 16
12 11 12 10 8 5 6 5 6 8 5 7 10 12 12 12 11 13 12 13 15 14 15 17 16 15 14 14 14 15 16 16 15 14 11 11 10 9 8 7 6 6 7 6 6 5 5 4 5 6 10 8 6 7 9 7 8 9 8 4 5 6 7 8 9 11 11 12 14 15 22 21 19 22 31 30 33 28 20 18 18 18 18 21 19
11 9 8 7 4 4 4 6 7 6 7 9 9 9 9 10 10 11 13 14 16 15 11 9 11 13 13 13 13 14 14 15 15 15 8 7 7 8 8 8 6 5 6 6 5 5 5 4 5 6 6 7 6 5 5 8 8 9 11 7 5 6 8 9 10 10 11 12 13 14 16 19 25 28 29 32 33 35 24 19 17 17 18 21 19
8 9 5 4 5 7 8 8 6 7 8 8 9 10 10 10 12 12 15 17 12 10 12 12 12 12 12 13 12 14 16 13 14 16 9 8 6 8 8 7 8 7 6 6 6 4 3 4 5 6 6 6 5 5 6 7 8 9 11 10 5 7 8 9 8 9 9 12 13 13 12 19 27 29 31 32 32 32 30 21 16 15 17 23 27
3 1 2 3 4 4 4 4 6 10 11 11 11 11 10 10 11 16 18 9 11 12 12 13 14 14 13 13 13 13 13 15 16 14 11 9 7 7 7 7 6 7 8 6 5 4 4 5 5 5 5 5 5 4 1 5 8 9 10 13 8 7 9 9 10 9 11 11 13 14 14 21 28 30 31 31 33 31 33 20 18 27 33 33 25
6 4 1 3 3 5 7 6 5 7 9 11 13 13 12 12 14 19 11 11 11 12 13 13 14 15 14 15 14 16 15 15 17 11 11 11 9 8 7 7 8 7 7 7 6 6 6 5 4 4 5 3 2 1 4 3 7 9 11 12 13 11 16 10 9 10 11 12 13 15 15 24 30 31 30 31 30 33 27 19 30 31 31 34 28
8 5 5 4 5 5 6 4 5 5 7 9 14 13 12 13 20 6 9 8 10 12 14 15 15 15 14 14 16 17 18 17 16 11 9 11 10 8 7 6 6 7 7 6 6 6 6 5 5 4 2 2 1 2 3 6 6 9 11 11 12 14 16 10 10 9 11 13 13 13 17 30 28 29 30 29 29 27 21 30 31 32 31 27 16
10 11 4 4 8 9 6 4 6 7 7 9 9 14 13 17 8 11 12 13 13 13 14 15 15 15 15 14 16 17 17 17 16 16 13 10 10 9 9 7 7 7 7 7 8 7 6 6 5 4 2 2 2 2 2 6 8 9 9 10 12 14 14 16 10 7 10 12 17 25 27 26 26 27 28 27 23 24 27 28 30 30 28 14 13
7 6 6 8 6 4 5 7 6 7 8 8 9 9 14 15 9 11 12 14 15 16 15 16 15 15 16 16 16 11 10 9 11 6 6 9 12 10 9 9 7 8 8 8 8 7 6 6 5 4 4 3 2 2 3 4 7 9 9 9 13 13 14 15 14 12 18 21 20 23 25 23 21 20 17 14 14 16 26 28 27 26 14 13 12
9 9 7 5 6 7 8 8 9 6 8 8 9 10 8 4 10 11 12 14 15 16 15 15 17 16 16 15 13 12 10 8 8 7 7 7 7 8 9 9 9 9 9 8 8 8 7 6 6 5 5 4 3 3 3 4 5 5 4 4 6 5 10 11 8 9 10 7 12 14 13 19 18 23 23 21 20 20 16 14 12 12 12 13 12
7 8 7 7 6 8 9 8 10 10 9 9 9 10 6 7 8 11 13 14 15 16 17 18 18 17 12 10 10 15 15 10 9 9 10 8 6 8 11 12 12 12 11 10 9 9 9 8 7 6 5 4 4 3 4 5 6 3 2 3 4 4 3 2 6 6 5 7 8 11 13 9 10 10 10 9 9 10 12 13 12 12 12 13 17
9 5 5 8 8 9 10 9 12 7 8 9 10 9 7 10 11 12 15 16 15 15 14 16 15 13 11 9 8 10 10 11 11 7 3 5 9 12 10 8 6 6 9 11 10 9 8 7 7 6 6 4 4 4 6 8 4 6 5 4 4 4 3 3 7 13 8 5 5 7 7 9 8 10 10 10 10 11 11 12 14 13 12 13 13
8 6 4 7 8 9 10 11 13 8 9 11 11 10 9 10 12 14 16 17 16 15 15 16 15 13 8 10 9 9 9 9 10 12 13 8 5 10 8 8 9 12 14 12 11 8 8 7 7 5 6 5 5 5 8 4 5 6 7 9 10 10 10 8 11 14 9 5 6 6 8 9 10 10 11 12 12 12 13 13 12 16 15 13 14
13 12 9 7 9 9 10 11 12 7 10 12 11 11 11 12 14 15 18 18 18 16 15 15 15 13 13 11 9 9 9 7 7 10 10 10 10 9 12 13 12 15 15 16 14 15 17 14 9 5 6 9 6 5 2 2 3 5 7 9 10 10 10 11 12 8 6 5 6 7 8 8 9 9 10 11 12 13 13 13 14 13 13 15 15
Wind_Direction
186 185 179 183 182 178 168 165 165 169 169 167 167 173 171 172 167 174 171 168 165 165 167 165 163 161 159 174 176 175 174 171 171 170 166 163 146 141 146 153 144 142 144 138 152 155 150 171 182 190 198 203 210 223 165 12 8 342 316 320 305 300 294 289 298 306 304 296 279 288 292 275 272 275 271 274 272 278 299 308 301 315 308 305 297
151 159 170 173 174 169 163 165 163 171 177 168 174 178 174 172 176 172 172 174 175 173 170 173 176 177 171 177 166 173 171 173 175 180 166 155 143 144 145 156 147 147 153 148 157 155 161 166 164 181 179 219 220 112 3 331 310 297 288 305 257 291 298 313 303 328 328 353 334 329 320 309 278 263 266 298 346 325 309 301 298 293 289 289 284
163 167 165 174 171 170 168 173 177 176 174 178 177 176 175 175 177 174 177 176 177 172 172 177 172 170 167 166 165 164 173 155 153 161 152 143 146 146 153 156 154 159 155 155 156 162 168 155 162 175 194 176 27 358 1 323 299 294 275 264 299 284 285 288 290 8 306 333 299 293 317 330 331 294 344 1 324 300 290 285 284 280 287 286 294
172 171 170 172 171 172 171 177 176 174 178 179 177 180 177 178 178 177 180 179 177 175 175 172 166 159 153 150 159 154 164 156 144 149 149 139 153 156 162 161 161 164 159 158 158 158 162 164 160 159 206 166 162 250 297 271 275 280 271 259 260 299 297 288 313 328 331 352 346 18 302 314 316 269 332 297 276 285 278 268 273 299 296 290 293
173 170 170 168 174 183 183 177 173 180 184 185 181 181 184 180 180 179 180 181 179 173 172 164 154 152 142 128 103 101 98 121 123 135 152 155 152 167 176 165 164 162 161 161 160 169 169 161 155 180 174 174 143 181 230 237 243 240 240 273 269 254 282 283 304 313 284 214 191 333 328 312 262 314 326 300 190 4 281 284 274 277 269 284 293
172 179 179 180 180 178 179 180 182 186 190 189 183 181 179 178 178 179 180 181 181 176 171 168 169 162 154 153 154 155 163 165 179 178 175 177 181 167 168 169 165 161 159 160 161 163 162 154 156 163 181 202 185 202 216 237 252 259 251 237 253 250 259 281 284 297 259 238 215 195 205 254 312 311 348 310 275 255 264 209 266 258 276 291 288
179 180 173 171 180 178 185 188 189 190 195 181 179 182 182 180 180 180 182 182 180 176 172 170 170 173 174 175 173 175 174 192 178 168 170 170 162 169 171 165 164 159 162 161 163 165 157 157 162 175 191 188 197 198 226 234 241 245 254 247 241 253 269 275 271 275 311 279 244 233 242 260 272 306 297 314 319 316 178 269 228 231 268 279 280
180 184 182 181 180 184 188 190 190 195 182 176 183 183 185 184 181 182 181 182 181 174 178 177 175 176 176 180 180 182 183 176 175 175 166 162 165 165 158 161 160 159 161 164 163 163 159 161 164 178 185 197 193 208 210 220 229 255 245 233 246 249 251 259 270 264 256 272 273 281 277 268 254 254 251 266 291 306 308 269 218 242 254 239 264
179 181 180 180 185 191 188 189 193 181 179 185 187 187 184 182 181 180 184 181 181 178 180 182 180 179 180 178 182 188 175 166 164 162 156 157 153 153 155 160 161 163 164 163 167 162 160 165 170 179 185 200 195 208 215 216 228 238 263 280 266 264 242 246 259 263 256 259 286 284 287 266 273 257 267 264 256 300 290 300 308 283 229 252 278
190 185 178 184 186 185 185 180 178 187 186 185 184 181 184 181 182 183 187 183 180 180 182 182 180 177 183 185 182 177 170 161 155 156 151 153 153 158 158 160 164 164 167 164 163 164 160 163 171 179 190 198 198 210 218 231 240 242 241 244 252 256 252 253 252 258 251 253 244 253 260 286 291 282 266 258 270 237 269 299 308 316 316 307 208
182 183 182 179 177 172 167 176 182 178 182 182 183 186 184 185 184 187 189 181 181 183 182 185 182 185 186 185 183 178 172 158 154 158 153 153 161 165 167 168 162 165 163 168 164 162 164 166 171 183 186 191 201 204 217 215 225 233 234 232 234 237 247 247 257 255 250 253 253 242 242 243 239 259 265 265 265 277 294 285 293 300 296 303 306
171 168 170 158 156 167 168 174 177 180 177 184 188 185 186 187 185 188 188 188 185 183 184 186 186 189 187 185 185 182 174 170 170 169 170 170 169 168 164 159 170 163 161 163 171 165 166 171 174 178 185 194 209 210 217 216 216 208 224 232 246 247 245 245 244 249 251 250 250 240 247 243 249 250 258 255 248 265 272 283 290 303 299 285 291
166 169 163 166 172 174 179 177 174 180 185 188 186 185 186 187 188 188 194 189 188 183 187 187 187 190 188 186 186 181 182 178 175 172 172 170 166 163 165 170 164 161 167 162 169 167 164 168 173 179 188 201 210 209 208 201 201 233 239 245 244 247 246 250 250 246 241 243 245 246 250 249 253 250 258 256 257 269 267 278 279 286 284 296 302
172 170 174 177 179 181 182 180 183 183 186 185 184 185 187 189 190 192 195 189 186 185 187 188 193 192 189 187 185 182 184 181 180 174 173 169 167 167 169 169 168 169 165 171 168 163 164 167 169 176 180 184 186 201 214 217 217 224 234 241 247 250 252 250 251 253 252 252 251 262 252 257 258 255 256 257 263 268 265 264 284 285 279 286 292
169 174 181 184 184 181 184 187 184 185 184 184 185 188 185 192 192 194 192 191 188 189 186 191 192 191 190 189 184 184 182 179 179 173 167 165 166 161 160 158 159 164 163 162 153 154 155 150 158 165 179 195 200 206 204 207 212 225 233 240 248 246 248 249 252 251 255 252 252 248 257 252 251 253 249 251 253 250 259 266 274 288 292 284 286
178 181 187 192 189 185 186 188 189 185 184 185 188 186 190 196 194 195 195 191 189 186 191 191 191 188 189 187 186 181 177 170 166 162 160 159 159 158 158 155 151 146 146 141 145 144 147 151 161 178 185 196 202 200 205 209 217 227 244 242 253 244 244 246 249 247 250 252 254 253 257 256 252 253 249 255 250 251 253 259 259 266 279 291 295
184 189 193 192 188 195 194 192 189 185 185 190 191 191 194 189 191 196 196 192 193 192 191 190 187 186 191 186 182 180 177 175 171 167 160 154 150 152 151 151 142 142 143 142 140 141 149 157 175 184 193 195 197 203 206 212 213 222 231 241 252 247 248 249 252 247 249 252 251 254 253 261 259 256 259 254 252 252 251 251 246 252 255 268 285
194 195 196 195 194 193 193 196 195 193 194 193 195 195 194 192 192 192 190 195 198 191 190 187 187 189 186 187 185 182 178 173 166 161 156 150 149 146 143 145 154 149 142 142 139 148 151 163 173 190 191 192 201 209 208 214 216 229 234 243 244 245 251 254 251 250 257 255 259 262 258 265 265 265 263 259 257 257 259 254 254 252 249 255 262
180 196 197 196 196 200 200 199 201 201 197 196 197 189 191 196 197 193 196 199 196 191 189 187 188 189 187 186 182 178 174 169 163 156 153 154 155 153 153 151 142 145 143 143 148 154 160 178 183 194 193 202 204 208 207 212 214 233 243 250 250 247 251 256 250 253 260 258 264 264 264 265 267 270 268 266 265 266 265 268 263 260 253 253 264
201 200 202 202 204 203 200 199 197 197 195 194 187 185 195 198 188 197 201 195 192 195 190 189 190 184 184 178 181 176 171 166 163 159 159 159 157 153 151 151 157 148 150 148 156 162 172 185 187 186 197 198 205 210 203 214 221 232 239 247 251 248 254 256 260 254 262 263 266 267 264 264 270 271 267 266 266 264 266 265 264 260 259 254 259
202 200 207 210 208 209 214 212 211 204 190 181 183 190 194 188 195 194 194 194 195 198 189 193 182 186 178 181 178 171 169 161 157 158 156 157 154 152 154 152 142 155 151 155 163 169 174 178 180 186 191 202 206 218 203 206 219 237 239 242 247 248 254 257 261 263 258 263 262 265 264 264 267 267 266 266 266 266 264 259 257 259 262 257 252
207 213 206 206 214 217 211 192 185 186 195 192 194 180 182 194 199 191 190 195 199 195 195 190 185 183 182 178 173 166 161 159 158 157 156 157 156 154 151 147 153 156 153 159 165 165 170 174 178 192 197 205 215 214 217 213 240 246 250 242 246 248 250 257 255 260 258 255 261 263 266 267 263 263 267 267 266 267 264 263 257 252 254 258 255
213 211 215 212 204 204 199 192 193 196 198 194 185 190 195 196 190 190 191 201 199 197 192 186 183 180 180 172 163 164 162 162 160 160 158 157 155 151 150 150 152 154 152 157 160 162 168 169 176 188 198 209 212 219 215 221 235 240 245 246 246 247 252 257 258 260 261 262 263 261 264 266 265 267 265 266 265 265 265 262 266 262 263 262 259
226 223 216 211 221 214 177 183 196 199 197 197 198 197 193 189 193 190 196 199 195 191 189 185 180 176 168 162 167 162 162 165 165 165 159 157 154 152 149 148 147 146 150 154 156 163 162 172 182 193 203 208 213 217 221 226 233 238 242 247 246 248 251 253 256 259 260 259 259 265 264 263 264 268 268 266 263 259 258 262 266 265 263 263 257
227 227 226 223 206 186 196 201 202 204 204 201 199 198 190 192 190 194 201 194 190 186 181 183 176 169 167 168 168 166 168 169 166 163 160 156 155 151 151 149 145 149 154 153 161 162 166 173 187 197 209 213 215 217 225 230 235 234 239 243 246 247 249 251 254 256 258 257 259 260 264 261 262 265 265 260 261 266 268 267 265 262 260 262 256
222 227 229 227 217 210 204 203 206 212 211 205 200 197 195 188 195 197 190 180 185 175 180 175 176 173 173 172 171 170 173 172 166 163 161 158 155 155 153 153 154 154 156 160 160 162 170 183 185 200 204 214 214 219 228 235 239 242 242 243 246 248 249 253 253 253 253 253 257 259 261 260 259 259 264 267 268 266 266 269 265 270 268 267 263
222 223 226 231 228 208 212 210 208 205 201 206 206 203 196 192 193 190 186 179 177 174 175 176 178 179 174 176 175 177 173 170 167 163 159 159 161 159 156 157 157 156 156 159 163 162 169 172 188 189 206 208 221 226 232 240 242 244 242 245 249 249 251 251 254 256 257 258 258 258 260 265 264 264 271 270 263 259 260 263 270 265 266 261 264
238 241 239 234 227 218 214 213 211 216 212 210 209 204 196 192 191 184 177 176 176 175 176 177 176 180 181 180 178 173 171 170 164 160 161 160 157 155 151 147 146 154 158 161 160 161 162 162 182 196 210 208 221 232 236 239 241 240 243 245 247 253 258 261 259 257 257 260 262 265 265 261 262 261 261 266 263 269 270 271 267 263 258 262 260
230 232 232 229 229 224 220 217 218 213 208 208 207 204 195 195 186 178 179 184 176 173 175 176 178 182 185 179 170 169 167 165 164 160 159 159 154 151 147 145 144 144 140 144 144 145 159 170 185 196 208 217 221 230 231 236 238 243 239 244 250 258 258 263 268 269 269 268 266 267 264 264 265 266 267 269 272 275 274 270 259 240 249 253 259
225 232 232 226 227 227 222 219 219 213 212 208 204 198 195 191 188 182 181 178 165 177 177 180 184 186 178 171 169 168 168 165 162 162 157 151 147 145 142 140 139 138 135 140 145 149 162 178 189 208 210 220 228 226 236 243 244 234 226 235 243 253 265 269 272 275 272 269 271 271 271 274 279 280 282 285 284 283 283 282 283 282 278 270 260
225 234 232 229 230 230 227 220 220 216 213 208 204 200 194 188 183 180 179 178 174 177 183 183 186 178 171 168 168 168 161 164 160 152 150 148 146 144 141 139 139 142 144 146 148 155 170 189 201 209 218 223 228 228 243 250 254 261 262 262 270 270 266 267 271 274 277 282 279 276 279 281 281 281 281 281 285 287 285 285 285 284 282 281 281
243 230 232 229 227 230 228 225 223 221 216 210 202 194 182 191 183 181 179 171 176 180 182 183 177 169 169 168 166 160 162 162 158 158 155 150 144 143 144 143 141 142 145 143 151 171 180 192 202 211 218 224 230 244 250 254 261 266 272 271 269 271 272 275 277 278 283 286 289 289 284 282 277 277 282 284 284 284 286 287 286 286 284 281 278
259 221 227 231 230 226 224 224 222 222 218 211 197 183 192 189 180 183 161 170 177 178 178 176 173 169 167 164 159 159 160 159 160 152 149 143 144 138 136 133 135 130 139 154 168 173 184 193 204 208 220 229 242 249 255 261 266 271 275 279 277 277 279 278 286 289 289 289 289 290 289 282 284 289 290 282 281 282 283 285 287 287 284 282 280
254 229 221 224 225 232 231 223 217 217 215 207 184 189 195 182 171 156 165 173 172 174 170 169 164 166 163 161 159 160 161 159 152 148 146 145 143 133 124 123 129 144 156 160 166 174 181 190 197 204 221 242 249 252 261 266 270 276 281 285 282 285 288 290 289 290 288 289 290 290 289 292 293 290 286 285 285 285 286 287 284 279 273 273 276
243 251 247 241 233 228 234 231 223 218 211 177 187 187 152 148 157 163 167 166 171 166 170 170 169 167 161 162 162 162 160 157 153 151 149 148 145 122 136 146 154 157 157 160 166 170 180 179 192 201 216 246 250 258 264 270 278 285 289 294 296 296 290 289 288 286 289 289 289 287 290 293 291 289 287 291 294 295 294 290 283 278 276 274 263
251 243 259 253 241 233 226 227 216 195 188 179 183 166 157 165 158 163 164 167 167 170 173 171 170 168 166 166 163 163 160 156 153 153 152 145 146 147 151 151 146 142 142 147 155 161 173 176 174 180 215 243 252 259 269 276 282 291 297 303 298 292 293 293 291 290 290 290 287 291 295 295 293 295 297 300 301 301 297 292 289 287 286 283 280
261 236 247 256 244 229 232 219 189 184 175 186 163 157 155 150 158 163 164 167 168 176 180 176 172 170 170 168 166 162 159 159 159 155 146 147 150 147 144 142 141 147 152 157 156 160 163 165 180 192 216 238 247 260 269 277 287 295 303 285 293 294 293 293 293 293 292 288 291 294 296 299 301 300 301 303 304 304 299 297 292 286 279 276 276
260 269 267 263 256 226 225 189 189 190 188 164 158 156 155 157 163 162 165 173 175 186 180 176 177 174 170 167 167 163 161 162 162 163 152 147 137 126 140 146 144 147 151 155 153 146 160 171 190 204 213 229 241 257 269 285 295 296 300 299 293 279 277 290 294 293 292 294 297 301 303 303 301 300 303 304 305 306 299 293 286 284 284 282 282
240 239 249 250 252 223 189 173 165 190 183 156 153 152 152 164 164 167 169 174 189 184 180 182 177 169 166 165 165 164 162 162 165 151 128 141 146 144 140 130 129 128 134 140 142 150 164 182 200 208 222 230 230 250 274 292 293 296 302 289 281 280 283 286 292 293 296 298 302 305 304 303 303 304 305 307 306 305 296 292 292 292 292 293 297
235 237 229 227 197 124 143 171 194 189 145 148 149 152 158 157 166 162 175 190 195 190 175 161 158 161 161 163 163 162 162 161 156 135 127 120 123 123 136 135 129 127 133 139 151 163 171 182 202 212 226 229 231 233 255 280 290 296 300 296 281 287 288 288 293 295 301 305 307 306 304 306 307 308 308 307 305 307 307 305 303 298 297 299 304
231 244 203 159 161 175 188 194 179 153 151 152 149 152 165 168 166 175 195 201 180 155 159 159 154 155 158 159 158 162 158 155 150 138 121 116 126 130 125 130 134 136 137 142 153 154 162 196 214 219 213 222 211 228 246 277 293 297 300 304 290 289 290 292 297 306 308 309 311 309 310 307 308 308 307 310 313 313 311 307 303 302 299 296 301
266 181 147 144 147 172 175 165 166 156 158 157 158 163 168 169 175 198 206 164 156 160 153 153 155 156 156 155 154 154 155 141 126 133 132 127 127 128 135 133 128 133 141 135 144 153 185 206 211 211 214 214 234 243 265 291 294 300 302 307 304 295 307 311 312 306 309 310 310 311 310 307 308 313 317 317 315 316 316 316 306 303 303 307 310
289 299 295 138 177 204 214 201 168 165 163 168 164 170 175 179 191 210 176 159 157 151 150 151 152 154 156 155 154 150 145 142 134 138 133 134 134 126 124 129 133 129 133 142 157 180 190 198 202 213 205 193 172 217 284 282 294 300 306 309 312 315 318 318 313 312 315 312 311 308 302 306 316 318 317 317 318 320 320 311 310 310 311 313 316
302 284 253 186 223 230 230 194 166 173 177 172 175 176 182 185 213 168 134 137 144 150 150 152 154 154 152 153 148 137 133 137 137 138 126 127 135 133 132 137 128 134 144 154 174 183 184 186 196 187 164 153 161 159 276 293 293 305 313 316 320 321 321 321 319 315 314 311 310 304 311 318 320 318 318 319 320 321 316 315 316 317 318 320 314
295 283 259 199 223 232 222 182 182 184 191 190 192 187 184 204 189 135 155 152 153 151 153 157 156 154 151 149 136 129 140 137 149 144 135 132 135 141 133 143 143 151 158 165 174 171 176 182 172 168 164 155 173 198 225 267 293 309 316 319 327 325 325 324 320 317 313 306 308 316 320 321 319 320 320 321 320 317 317 320 321 320 321 312 309
282 274 232 226 237 242 213 224 205 195 197 198 201 188 195 211 152 156 151 153 151 155 159 160 156 154 153 148 134 132 138 146 145 138 122 142 147 150 139 143 151 163 167 168 166 165 175 172 165 161 168 173 187 198 234 250 265 280 278 316 327 328 324 323 324 320 313 314 319 322 321 318 319 318 319 318 314 315 320 322 323 322 313 309 306
273 253 235 218 212 222 232 229 234 205 200 210 209 217 215 127 159 154 151 150 155 158 157 157 160 157 155 154 145 149 147 148 142 136 133 134 140 135 136 143 161 165 166 168 165 168 172 166 164 164 164 181 192 210 226 254 260 263 250 295 318 311 321 325 324 297 298 327 332 325 316 318 316 316 316 313 312 313 313 314 315 315 313 310 309
253 253 221 213 210 220 231 229 237 224 195 204 209 215 196 156 151 152 148 151 158 165 165 169 165 164 156 157 148 148 148 149 157 150 147 148 151 151 154 164 169 170 165 169 170 173 172 165 163 160 165 178 202 203 235 252 259 244 284 298 312 303 302 330 307 294 349 343 324 311 314 304 303 303 306 302 302 307 309 312 313 316 315 313 312
293 266 199 209 216 222 228 226 236 222 183 199 209 203 174 166 159 154 155 159 166 167 165 164 165 160 153 163 153 157 154 145 145 141 113 148 153 161 159 158 172 168 169 162 167 165 162 157 151 160 162 171 172 220 237 252 288 333 334 339 330 319 329 322 317 332 351 334 311 313 307 310 310 314 315 315 315 316 316 314 314 317 320 319 315
287 279 225 230 223 221 225 226 235 213 191 203 205 195 180 171 161 162 162 165 164 163 166 170 170 172 159 158 157 155 149 144 143 147 148 130 132 146 151 153 155 172 171 166 159 159 157 149 155 170 164 170 184 220 249 305 350 342 349 349 347 345 343 339 341 349 350 330 320 316 315 316 318 322 322 322 323 323 321 322 319 322 321 321 320
292 289 279 244 237 229 230 236 236 206 202 205 200 191 180 176 171 170 171 170 162 165 172 173 173 182 178 163 153 147 153 129 129 126 129 128 140 159 162 158 158 163 165 165 162 160 160 162 161 159 176 185 207 232 285 351 3 7 356 357 358 2 355 353 356 4 354 336 323 322 317 316 315 317 317 319 322 322 323 321 321 321 319 321 322